Torna al catalogo

STARLINK-35417

AttivoComunicazioniVLEO
NORAD 66335·PAYLOAD·🇺🇸 United States

Lanciato Nov 6, 2025 da Cape Canaveral Space Force Station

Loading…

Prossimi Passaggi (prossime 24 ore)

TLE

AggiornatoSource: CelesTrak SupGP

Epoca: Sep 15, 2026, 02:36 UTC

1 66335C 25253S   26258.10881944 -.00066161  00000+0 -23964-2 0  2583
2 66335  43.0007 222.8103 0001313 272.2890  73.1715 15.27610638    19

Traccia STARLINK-35417 in tempo reale con AllMySat

Download on the App Store